Tracking 32420 objects as of 9-Dec-2025
HD Live streaming from Space Station
objects crossing your sky now

ORBCOMM FM 107

Track ORBCOMM FM 107 now!
10-day predictions
ORBCOMM FM 107 is classified as:


NORAD ID: 40087
Int'l Code: 2014-040B
Perigee: 703.8 km
Apogee: 705.9 km
Inclination: 47.0 °
Period: 98.7 minutes
Semi major axis: 7075 km
RCS: Unknown
Launch date: July 14, 2014
Source: United States (US)
Launch site: AIR FORCE EASTERN TEST RANGE (AFETR)
Your satellite tracking list
Your tracking list is empty




NASA's NSSDC Master Catalog

Two Line Element Set (TLE):
1 40087U 14040B   25342.84229182  .00001587  00000-0  37392-3 0  9998
2 40087  47.0054 272.1253 0001489 334.0441  26.0370 14.58610356606632
Source of the keplerian elements: AFSPC